Dewpoint
72 72 71 71 69 68 69 65 65 62 63 65 66 68 69 70 70 70 71 69 68 68 67 66 67 68 68 68 69 69 69 69 69 69 69 70 70 71
71 72 72 71 70 69 70 68 66 64 64 64 66 67 69 69 71 72 72 70 69 68 67 67 67 67 68 68 68 68 68 68 68 68 68 68 69 69
72 72 71 71 70 70 70 71 69 66 66 68 66 70 71 72 73 73 73 74 73 69 68 67 66 66 67 67 66 66 66 65 65 65 65 66 67 68
71 72 71 70 71 72 71 71 71 70 69 69 70 70 71 73 73 74 73 72 73 69 67 66 66 66 65 65 63 62 62 62 62 62 62 63 63 64
71 71 71 71 71 72 72 71 71 71 71 70 70 72 71 72 73 74 74 75 71 70 67 67 67 66 65 61 60 59 57 58 58 58 58 59 59 61
72 72 72 72 72 72 71 72 72 72 72 71 71 71 71 73 72 71 72 73 71 71 70 69 68 69 64 61 61 60 58 57 56 56 56 55 55 56
72 72 72 72 70 71 72 73 73 72 71 71 71 71 72 72 72 73 71 71 72 72 72 73 73 74 71 63 62 60 59 58 57 56 55 54 55 55
72 72 73 71 70 67 67 67 71 73 73 72 72 71 72 72 73 72 71 71 69 73 72 72 74 73 71 64 60 59 58 57 56 55 55 55 54 54
73 73 72 71 71 73 68 66 66 66 68 73 72 73 73 74 73 73 72 70 70 71 73 71 74 72 67 60 60 59 58 56 55 55 55 54 53 53
72 72 72 72 72 72 72 72 72 73 71 69 71 73 74 74 74 73 73 72 72 72 74 72 73 72 66 63 59 58 57 56 55 54 54 53 52 51
72 72 72 72 68 64 72 72 72 73 68 64 65 65 64 63 66 71 70 70 70 70 73 72 72 74 71 66 62 58 56 55 54 54 54 53 51 52
71 72 65 70 64 61 71 72 71 72 72 73 72 68 65 68 62 69 71 70 71 71 74 72 74 73 72 71 65 63 61 55 54 53 53 52 51 57
68 68 71 62 60 58 61 72 71 71 70 71 72 72 72 71 71 70 71 71 72 72 74 75 74 73 71 71 69 65 61 59 57 56 53 51 51 52
68 69 69 59 58 57 59 61 60 61 70 72 72 70 71 71 72 73 74 73 73 74 75 76 73 73 72 68 67 64 61 60 58 56 55 53 53 53
69 67 62 57 56 58 57 59 58 65 68 69 69 70 70 71 73 73 73 74 74 73 73 73 73 73 71 68 66 64 60 60 58 57 56 54 55 56
65 68 66 64 62 65 65 62 64 67 68 68 69 70 71 71 70 71 71 73 71 72 69 66 68 72 68 66 64 63 61 62 59 58 57 55 55 55
67 70 70 70 70 70 69 69 68 67 67 68 68 69 69 70 70 71 71 72 71 71 70 62 61 65 65 65 62 62 61 61 59 59 58 56 55 55
66 69 69 70 70 70 69 70 70 68 69 69 69 69 69 69 69 71 71 72 72 72 71 65 61 62 62 62 61 62 60 61 60 58 57 56 55 55
71 70 70 70 70 70 70 70 71 71 71 69 69 69 69 69 68 70 71 71 72 72 71 64 62 63 62 62 63 56 62 61 59 58 57 55 55 55
71 71 71 71 71 71 71 71 71 72 71 70 69 69 69 69 70 70 71 71 71 71 68 65 64 63 64 64 64 62 51 60 59 58 56 55 55 54
68 71 73 73 73 72 72 73 73 73 73 72 72 72 72 71 70 71 71 64 65 68 66 65 66 62 64 63 62 61 59 50 56 59 57 56 55 55
71 70 71 72 72 72 72 72 73 72 72 72 73 72 71 70 70 70 69 68 66 67 67 66 64 63 62 62 62 62 59 56 52 52 54 55 56 56
72 72 71 71 72 72 72 72 72 72 72 71 68 67 67 65 65 65 64 63 64 65 65 64 63 63 63 62 61 60 59 58 57 57 57 53 53 53
Lifted_Index
-3 -3 -3 -3 -2 -2 -3 -3 -3 -2 -2 -2 -3 -3 -4 -4 -5 -5 -5 -6 -6 -6 -5 -4 -4 -5 -5 -6 -6 -6 -6 -6 -5 -5 -4 -3 -3 -3
-3 -3 -3 -3 -2 -2 -3 -3 -3 -3 -3 -3 -3 -4 -4 -5 -5 -5 -5 -6 -6 -6 -5 -4 -5 -5 -6 -6 -6 -6 -5 -5 -4 -3 -2 -2 -1 -1
-3 -3 -3 -3 -3 -3 -3 -3 -3 -4 -4 -4 -4 -4 -5 -5 -5 -5 -5 -6 -6 -5 -5 -4 -5 -5 -6 -6 -6 -5 -5 -4 -2 -1 1 1 1 1
-3 -3 -3 -3 -3 -3 -3 -4 -4 -4 -4 -4 -5 -5 -5 -5 -5 -5 -6 -6 -5 -5 -5 -4 -5 -5 -6 -6 -5 -4 -3 -1 1 3 4 5 5 4
-3 -3 -3 -3 -3 -3 -3 -4 -4 -4 -5 -5 -5 -5 -5 -5 -5 -5 -5 -5 -5 -5 -5 -4 -5 -6 -6 -6 -4 -2 -1 1 3 5 6 7 7 7
-3 -3 -3 -3 -3 -3 -4 -4 -4 -4 -5 -5 -5 -5 -5 -5 -5 -5 -5 -5 -5 -5 -5 -5 -5 -6 -6 -6 -4 -2 0 2 4 5 7 7 8 8
-3 -3 -3 -3 -4 -4 -4 -4 -4 -4 -5 -5 -5 -5 -5 -5 -5 -5 -5 -5 -5 -5 -5 -6 -6 -7 -7 -6 -4 -2 -0 2 4 6 7 8 8 8
-3 -3 -3 -3 -4 -4 -4 -4 -4 -4 -5 -5 -5 -5 -5 -5 -5 -5 -5 -5 -5 -5 -6 -6 -7 -7 -8 -7 -5 -3 -1 1 3 6 7 8 8 8
-4 -4 -3 -3 -3 -3 -3 -3 -4 -4 -4 -5 -5 -5 -5 -5 -5 -5 -5 -5 -5 -5 -6 -7 -7 -8 -8 -7 -5 -3 -2 1 3 6 7 8 8 8
-4 -4 -4 -3 -3 -3 -3 -3 -4 -4 -4 -4 -4 -4 -5 -5 -4 -4 -4 -5 -5 -5 -6 -6 -7 -8 -8 -7 -5 -4 -2 0 3 6 7 8 8 8
-3 -3 -3 -3 -3 -3 -3 -3 -4 -4 -4 -4 -4 -4 -4 -4 -4 -4 -4 -4 -5 -5 -6 -6 -7 -8 -8 -7 -5 -4 -2 1 4 6 7 7 8 8
-3 -3 -3 -3 -3 -3 -3 -3 -4 -4 -3 -3 -3 -4 -4 -4 -4 -3 -4 -4 -5 -6 -6 -6 -7 -8 -8 -7 -5 -4 -2 1 4 6 7 7 7 7
-2 -2 -3 -3 -3 -3 -3 -3 -3 -3 -3 -3 -3 -3 -4 -4 -3 -3 -3 -4 -5 -6 -6 -7 -7 -8 -7 -7 -6 -4 -2 1 3 6 7 7 7 7
-2 -2 -3 -3 -3 -3 -3 -3 -3 -3 -3 -3 -3 -3 -3 -3 -3 -3 -3 -3 -4 -5 -6 -6 -7 -7 -7 -7 -6 -4 -1 1 3 5 7 7 7 7
-3 -3 -3 -3 -3 -3 -3 -3 -3 -3 -2 -2 -3 -3 -3 -3 -3 -2 -3 -3 -4 -5 -6 -6 -7 -7 -7 -6 -5 -4 -2 0 3 5 6 7 7 7
-3 -3 -3 -3 -3 -3 -3 -3 -3 -3 -3 -3 -3 -3 -3 -3 -3 -3 -3 -3 -4 -5 -6 -7 -7 -7 -7 -6 -5 -3 -2 -0 2 4 6 6 6 7
-4 -4 -4 -4 -4 -4 -4 -4 -4 -4 -4 -3 -4 -4 -4 -4 -3 -3 -3 -3 -4 -5 -6 -7 -7 -7 -7 -6 -5 -3 -2 -0 1 4 6 6 6 6
-5 -5 -5 -5 -4 -4 -5 -5 -4 -4 -4 -4 -4 -4 -5 -5 -4 -4 -3 -4 -4 -6 -6 -7 -7 -7 -7 -6 -4 -3 -2 -1 1 4 5 6 6 6
-6 -6 -6 -6 -5 -5 -5 -5 -5 -4 -4 -4 -4 -5 -5 -5 -5 -5 -4 -4 -5 -6 -6 -7 -7 -6 -6 -5 -4 -3 -2 -0 2 4 5 6 6 6
-7 -7 -7 -7 -6 -6 -6 -6 -6 -5 -5 -5 -5 -6 -6 -6 -6 -5 -5 -5 -5 -6 -6 -7 -7 -6 -5 -4 -3 -2 -1 0 2 4 5 6 6 6
-8 -8 -8 -8 -7 -7 -7 -7 -6 -6 -6 -7 -7 -6 -6 -6 -6 -5 -5 -5 -5 -6 -6 -6 -6 -6 -5 -4 -3 -2 -1 1 3 4 5 5 6 6
-8 -8 -8 -8 -8 -8 -7 -7 -7 -7 -7 -7 -7 -6 -6 -6 -5 -5 -5 -4 -4 -5 -5 -5 -5 -5 -4 -4 -3 -2 -0 1 2 3 4 4 5 5
-8 -9 -9 -9 -8 -8 -8 -7 -7 -7 -7 -7 -7 -6 -6 -6 -5 -5 -4 -3 -3 -3 -4 -4 -4 -4 -4 -4 -3 -1 -0 1 2 3 3 4 4 4